Preview of NWS' New Version of Forecast
This preview is not operational and should not be used for support decisions.

Regional Weather Roundup (RWR)

Issued by National Weather Service (NWS)

                            
000
ASUS43 KMKX 170611
RWRWI 

WISCONSIN REGIONAL WEATHER ROUNDUP
NATIONAL WEATHER SERVICE MILWAUKEE/SULLIVAN WI
100 AM CDT MON JUN 17 2019

NOTE: "FAIR" INDICATES FEW OR NO CLOUDS BELOW 12,000 FEET WITH NO
SIGNIFICANT WEATHER AND/OR OBSTRUCTIONS TO VISIBILITY.

WIZ001-002-006>008-014>016-023>028-170700-
NORTHWEST WISCONSIN
  
CITY           SKY/WX    TMP DP  RH WIND       PRES   REMARKS
SUPERIOR ARPT  MOCLDY    45  44  95 CALM      29.99S                  
6HR MIN TEMP:  45; 6HR MAX TEMP:  50;                                

ASHLAND        FAIR      43  43 100 CALM      29.98F                  
6HR MIN TEMP:  43; 6HR MAX TEMP:  56;                                

HAYWARD        FAIR      48  46  93 CALM      29.98R                  
6HR MIN TEMP:  47; 6HR MAX TEMP:  67;                                

SIREN          CLOUDY    55  52  89 CALM      29.97R                  
6HR MIN TEMP:  52; 6HR MAX TEMP:  74;                                

CUMBERLAND     CLOUDY    54  52  94 SE3       29.97F                  
RICE LAKE      FAIR      55  52  89 E3        29.99S                  
6HR MIN TEMP:  55; 6HR MAX TEMP:  70;                                

CHETEK         FAIR      54  53  98 CALM      29.98F                  
6HR MIN TEMP:  52; 6HR MAX TEMP:  67;                                

LADYSMITH      FAIR      51  51  97 CALM      30.01S                  
6HR MIN TEMP:  52; 6HR MAX TEMP:  71;                                

EAU CLAIRE     FAIR      52  50  93 S5        29.97S                  
6HR MIN TEMP:  51; 6HR MAX TEMP:  62;                                

MENOMONIE      CLOUDY    53  51  93 SE5       29.98S                  
6HR MIN TEMP:  51; 6HR MAX TEMP:  60; 6HR PCP:  0.01;                

NEW RICHMOND   MOCLDY    56  54  91 S9        29.96S                  
6HR MIN TEMP:  56; 6HR MAX TEMP:  68;                                

OSCEOLA        FAIR      57  55  91 SE3       29.99R                  
6HR MIN TEMP:  57; 6HR MAX TEMP:  71;                                

$$
 
WIZ003>005-009-010-017-018-170700-
NORTH CENTRAL WISCONSIN
  
CITY           SKY/WX    TMP DP  RH WIND       PRES   REMARKS
MANITOWISH WTR FAIR      51  51 100 S5        30.00R                  
6HR MIN TEMP:  47; 6HR MAX TEMP:  67;                                

ARBOR VITAE    FAIR      55  51  89 CALM      30.00S                  
6HR MIN TEMP:  55; 6HR MAX TEMP:  72;                                

WOODRUFF       FAIR      55  51  89 CALM      30.00S                  
6HR MIN TEMP:  55; 6HR MAX TEMP:  72;                                

RHINELANDER    FAIR      48  43  82 CALM      30.01S HAZE             
6HR MIN TEMP:  48; 6HR MAX TEMP:  73;                                

EAGLE RIVER    CLOUDY    54  48  79 CALM      29.99F                  
6HR MIN TEMP:  54; 6HR MAX TEMP:  69;                                

LAND O LAKES   FAIR      48  46  95 CALM      30.01S                  
6HR MIN TEMP:  47; 6HR MAX TEMP:  68;                                

PHILLIPS       FAIR      49  49 100 CALM      29.99S                  
6HR MIN TEMP:  48; 6HR MAX TEMP:  69;                                

TOMAHAWK       FAIR      44  43  96 CALM      30.01S                  
6HR MIN TEMP:  44; 6HR MAX TEMP:  66;                                

MEDFORD        FAIR      47  47  98 CALM      30.00R                  
6HR MIN TEMP:  47; 6HR MAX TEMP:  60;                                

MERRILL        FAIR      47  47 100 CALM      30.01R                  
6HR MIN TEMP:  46; 6HR MAX TEMP:  64;                                

$$
 
WIZ029-030-035-036-043>047-170700-
CENTRAL WISCONSIN
  
CITY           SKY/WX    TMP DP  RH WIND       PRES   REMARKS
WAUSAU         FAIR      50  48  93 CALM      29.99R                  
6HR MIN TEMP:  50; 6HR MAX TEMP:  60;                                

MOSINEE        FAIR      48  48 100 CALM      30.01R                  
MARSHFIELD     CLOUDY    55  51  86 CALM      29.98S                  
6HR MIN TEMP:  55; 6HR MAX TEMP:  58;                                

STEVENS POINT  MOCLDY    49  49 100 CALM      30.00S                  
6HR MIN TEMP:  49; 6HR MAX TEMP:  57;                                

WAUPACA        CLOUDY    55  54  95 CALM      29.99S                  
6HR MIN TEMP:  54; 6HR MAX TEMP:  62;                                

WAUTOMA        CLOUDY    54  53  97 CALM      29.99S                  
6HR MIN TEMP:  54; 6HR MAX TEMP:  58;                                

WISC RAPIDS    FOG       52  50  93 CALM      30.00R VSB 3/4          
6HR MIN TEMP:  51; 6HR MAX TEMP:  58;                                

CAMP DOUGLAS   MOCLDY    49  49 100 CALM      29.98S                  
6HR MIN TEMP:  49; 6HR MAX TEMP:  58;                                

$$
 
WIZ011>013-019>022-031-037>040-048>050-170700-
NORTHEAST WISCONSIN
  
CITY           SKY/WX    TMP DP  RH WIND       PRES   REMARKS
ANTIGO         FAIR      48  48 100 CALM      30.01R FOG              
6HR MIN TEMP:  47; 6HR MAX TEMP:  61;                                

SHAWANO        FAIR      51  45  80 CALM      29.99S                  
6HR MIN TEMP:  50; 6HR MAX TEMP:  65;                                

OCONTO         MOCLDY    47  47  99 CALM      29.99S                  
6HR MIN TEMP:  47; 6HR MAX TEMP:  60;                                

STURGEON BAY   FAIR      48  47  96 CALM      30.01S                  
6HR MIN TEMP:  48; 6HR MAX TEMP:  58;                                

GREEN BAY      CLOUDY    57  51  80 CALM      29.99F                  
6HR MIN TEMP:  56; 6HR MAX TEMP:  61;                                

MANITOWOC      CLOUDY    52  50  93 CALM      30.00S                  
6HR MIN TEMP:  50; 6HR MAX TEMP:  56;                                

APPLETON       CLOUDY    55  45  67 CALM      29.98S                  
CLINTONVILLE   FAIR      51  48  90 CALM      30.00R                  
6HR MIN TEMP:  51; 6HR MAX TEMP:  61;                                

OSHKOSH        CLOUDY    56  50  80 SE5       29.99S                  
6HR MIN TEMP:  56; 6HR MAX TEMP:  58;                                

$$
 
WIZ032>034-041-042-053>061-170700-
SOUTHWEST WISCONSIN
  
CITY           SKY/WX    TMP DP  RH WIND       PRES   REMARKS
LA CROSSE      CLOUDY    61  52  72 SE5       29.97S                  
6HR MIN TEMP:  60; 6HR MAX TEMP:  63;                                

SPARTA         CLOUDY    51  50  96 CALM      29.99S                  
6HR MIN TEMP:  49; 6HR MAX TEMP:  58;                                

VIROQUA        CLOUDY    55  55 100 S3        29.99R                  
6HR MIN TEMP:  55; 6HR MAX TEMP:  58;                                

BOSCOBEL       CLOUDY    59  56  89 CALM      29.98S                  
6HR MIN TEMP:  59; 6HR MAX TEMP:  63;                                

PRAIRIE DU CHI CLOUDY    59  56  89 NE3       29.97S                  
6HR MIN TEMP:  58; 6HR MAX TEMP:  64;                                

PLATTEVILLE    CLOUDY    59  59 100 NE3       29.97F                  
6HR MIN TEMP:  58; 6HR MAX TEMP:  61;                                

$$

WIZ056-057-062-063-064-067-068-170700-
SOUTH CENTRAL WISCONSIN
  
CITY           SKY/WX    TMP DP  RH WIND       PRES   REMARKS
REEDSBURG      MOCLDY    54  53  97 CALM      29.97F                  
6HR MIN TEMP:  54; 6HR MAX TEMP:  58;                                

BARABOO/DELLS  CLOUDY    55  51  85 CALM      29.97F                  
6HR MIN TEMP:  55; 6HR MAX TEMP:  57;                                

LONE ROCK      CLOUDY    58  52  80 NE5       29.97F                  
6HR MIN TEMP:  58; 6HR MAX TEMP:  60;                                

MINERAL POINT  CLOUDY    59  59 100 E3        29.97F                  
MADISON        CLOUDY    56  51  84 N3        29.96F                  
6HR MIN TEMP:  56; 6HR MAX TEMP:  61;                                

MIDDLETON      CLOUDY    58  53  83 NE5       29.98F                  
6HR MIN TEMP:  58; 6HR MAX TEMP:  61;                                

WATERTOWN      CLOUDY    55  53  92 CALM      29.97F                  
6HR MIN TEMP:  55; 6HR MAX TEMP:  60; 6HR PCP:  0.01;                

MONROE         CLOUDY    57  53  87 NE5       29.96F                  
6HR MIN TEMP:  57; 6HR MAX TEMP:  60;                                

JANESVILLE     CLOUDY    57  54  88 CALM      29.96F                  
$$
 
WIZ051-052-058>065-066-070>072-170700-
SOUTHEAST WISCONSIN
  
CITY           SKY/WX    TMP DP  RH WIND       PRES   REMARKS
MILWAUKEE      CLOUDY    55  49  80 N3        29.96F                  
6HR MIN TEMP:  52; 6HR MAX TEMP:  55;                                

WAUKESHA       CLOUDY    52  48  87 N5        29.98S                  
MILWAUKEE/TIMM CLOUDY    54  46  76 NE6       29.98S                  
RACINE         CLOUDY    53  49  86 N5        29.98S                  
6HR MIN TEMP:  51; 6HR MAX TEMP:  53;                                

KENOSHA        CLOUDY    55  52  89 N5        29.95F                  
6HR MIN TEMP:  54; 6HR MAX TEMP:  58;                                

FOND DU LAC    CLOUDY    57  49  74 E3        29.99S                  
6HR MIN TEMP:  57; 6HR MAX TEMP:  60;                                

SHEBOYGAN      CLOUDY    54  50  86 NE3       29.98F                  
6HR MIN TEMP:  54; 6HR MAX TEMP:  56;                                

WEST BEND      CLOUDY    54  52  94 NE3       29.98S                  
JUNEAU         CLOUDY    55  51  86 CALM      29.99S                  
6HR MIN TEMP:  55; 6HR MAX TEMP:  60;                                

$$

LSZ147-162-170700-
LAKE SUPERIOR
  
STATION/POSITION TIME  TEMP    WIND        PRES    WAVE
                       AIR SEA DIR/SP/G            HT/PER
                 (UTC) (F)     (DEG/KT/KT) (MB)    (FT/S)
W MID LAKE BUOY  0550   42 38   70/  6/  6 1015.9R   1
$$
 
LMZ867-665-643>646-170700-
LAKE MICHIGAN
  
STATION/POSITION TIME  TEMP    WIND        PRES    WAVE
                       AIR SEA DIR/SP/G            HT/PER
                 (UTC) (F)     (DEG/KT/KT) (MB)    (FT/S